map of MPL home
Great Circle Mapper logo
MPL - Airport
Location
City:  Montpellier Méditerranée, France
Name:Frejorgues
ICAO / IATA:LFMT / MPL

Details
Type:Airport (Aerodrome, Airfield)
Use:Public/Civil, International (customs port of entry)
Latitude:43°35'00"N (43.583333)
Longitude:3°57'41"E (3.961389)
Elevation:17 ft (5 m)
Variation:0.94°E (WMM2015 magnetic declination)
0.12° annual change
Runways:2
Longest:8530 × 164 ft (2600 × 50 m), paved

Time
Time Zone:UTC+1 (DST+2)
Local Time:

Weather
METAR:LFMT 191700Z 10006KT 9999 FEW010 BKN013 BKN020 13/11 Q1017 NOSIG
TAF:LFMT 191700Z 1918/2018 12010KT 9999 FEW012 SCT020 BKN040
BECMG 1920/1923 VRB02KT
TEMPO 1918/1924 5000 -RA SCT008 BKN012
BECMG 2010/2012 FEW035

Related Locations
Nearby:
Farthest:CHT: 12409 mi / 19970 km
Waitangi [Tuuta], Chatham Islands, NZ

Find:

   beyond  
but within

Other Information
Maps:
NOTAMs:
Links:
Sources:

  
flag of France   

Sectional Chart

Flight Planning
at skyvector.com

Satellite Image

Google Maps Satellite View

 

Copyright © 2004-2015 Karl L. Swartz. All rights reserved.
The Great Circle Mapper name and logo are trademarks of the Great Circle Mapper.
All other trademarks mentioned herein belong to their respective owners.
Please see credits for attibutions and further copyright information.

  Follow gcmap on Facebook Follow gcmap on Twitter Follow gcmap on Google+

hCard Microformat

Geo Microformat